Union Aéronautique de la Côte d'Azur

Union Aéronautique de la Côte d'Azur
UACA
Approuvé A.T.O. EASA – N°FR.ATO.0108

UNION des aéroclubs
Cannes “Ailes d’Azur”, Nice “Côte d’Azur”, Grasse “St Exupery”, ACCA “Francis Séverac”

Un cache-pitot se trouve à bord de chaque avion. Pensez à le mettre en place à la fin de chaque vol !

Avant de quitter l'avion, vérifiez que vous n'emportez pas la checklist

Un vol ne s'entreprend qu'avec un pare-brise parfaitement propre, il en va de votre sécurité, et de celle des autres

Après chaque vol, merci de mettre en place les pares-soleil!


Météo à Cannes:
METAR
LFMD 170830Z AUTO 01004KT 330V060 9999 FEW074 BKN160 12/06 Q1014 NOSIG =
LFMD 170800Z 1709/1809 VRB03KT 9999 BKN080 BECMG 1709/1710 13010KT PROB40 TEMPO 1710/1712 12015G25KT BECMG 1714/1716 VRB05KT CAVOK

TAF
LFMD 170800Z 1709/1809 VRB03KT 9999 BKN080 BECMG 1709/1710 13010KT PROB40 TEMPO 1710/1712 12015G25KT BECMG 1714/1716 VRB05KT CAVOK =

SR / SS: 04:43 / 18:20 UTC (LFMD 2021-04-17)